GW0416 Weather Reports


time (UTC)temp
F
wind
direction
speed
knots
gust
knots
rain 1hr
in
rain 24hr
in
rain mn
in
humidity
%
barometer
mb
20260504230032 53 351 24.3 35.6 0.00 0.00 0.00 25 1015.1
20260504224534 53 9 18.2 37.4 0.00 0.00 0.00 26 1015.1
20260504223030 53 343 25.2 33.0 0.00 0.00 0.00 27 1015.0
20260504221538 53 5 20.0 31.3 0.00 0.00 0.00 30 1015.1
20260504220028 53 360 23.5 32.2 0.00 0.00 0.00 29 1015.0
20260504214531 53 336 20.9 31.3 0.00 0.00 0.00 30 1015.1
20260504213039 52 5 20.0 32.2 0.00 0.00 0.00 32 1015.2
20260504211535 51 343 20.9 27.8 0.00 0.00 0.00 34 1015.5
20260504210031 52 9 18.2 31.3 0.00 0.00 0.00 33 1015.5
20260504204533 51 343 20.9 33.0 0.00 0.00 0.00 33 1015.7
20260504203033 51 352 16.5 27.8 0.00 0.00 0.00 33 1015.6
20260504201530 50 5 16.5 31.3 0.00 0.00 0.00 35 1015.4
20260504200032 51 347 20.0 30.4 0.00 0.00 0.00 35 1015.4
20260504194529 52 20 22.6 31.3 0.00 0.00 0.00 34 1015.4
20260504193032 54 349 17.4 29.5 0.00 0.00 0.00 33 1015.3
20260504191546 51 355 20.0 33.9 0.00 0.00 0.00 38 1015.3
20260504190030 52 355 20.0 29.5 0.00 0.00 0.00 39 1015.3
20260504184540 53 350 19.1 33.0 0.00 0.00 0.00 39 1015.3
20260504183032 52 355 24.3 32.2 0.00 0.00 0.00 39 1015.3
20260504181533 51 343 18.2 28.7 0.00 0.00 0.00 39 1015.3
20260504180035 52 350 16.5 27.8 0.00 0.00 0.00 39 1015.5
20260504174530 52 355 20.9 28.7 0.00 0.00 0.00 39 1015.5
20260504173028 51 313 18.2 26.9 0.00 0.00 0.00 39 1015.5
20260504171530 51 348 16.5 24.3 0.00 0.00 0.00 42 1015.8
20260504081530 46 34 18.2 28.7 0.00 0.00 0.00 63 1015.1
20260504044534 54 39 20.9 29.5 0.00 0.00 0.00 42 1010.5
20260504043036 56 34 24.3 31.3 0.00 0.00 0.00 42 1009.9
20260504041530 55 26 13.0 16.5 0.00 0.00 0.00 43 1009.4
20260504040032 56 22 12.2 14.8 0.00 0.00 0.00 41 1009.1
20260504034531 57 30 11.3 16.5 0.00 0.00 0.00 40 1008.7
20260504033033 57 30 13.0 17.4 0.00 0.00 0.00 39 1008.4
20260504031532 58 33 12.2 17.4 0.00 0.00 0.00 38 1008.2
20260504030031 60 25 16.5 21.7 0.00 0.00 0.00 36 1007.9
20260504024535 61 26 13.9 23.5 0.00 0.00 0.00 34 1007.7
20260504023030 62 26 12.2 16.5 0.00 0.00 0.00 31 1007.6
20260504021532 65 26 13.9 19.1 0.00 0.00 0.00 28 1007.6
20260504020032 67 9 8.7 13.9 0.00 0.00 0.00 23 1007.5
20260504014531 68 355 13.9 20.0 0.00 0.00 0.00 21 1007.7
20260504013037 70 351 15.6 19.1 0.00 0.00 0.00 20 1007.6
20260504011530 70 360 15.6 20.9 0.00 0.00 0.00 20 1007.6
20260504010031 70 336 14.8 22.6 0.00 0.00 0.00 20 1007.6
20260504004530 71 330 13.9 23.5 0.00 0.00 0.00 20 1007.7
20260504003040 71 348 13.0 23.5 0.00 0.00 0.00 20 1007.9
20260504001530 72 360 13.9 20.9 0.00 0.00 0.00 20 1008.1
20260504000028 71 345 12.2 20.9 0.00 0.00 0.00 20 1008.3
20260503234533 72 337 13.9 22.6 0.00 0.00 0.00 20 1008.3
20260503233038 72 342 16.5 22.6 0.00 0.00 0.00 20 1008.3
20260503231531 71 310 7.0 18.2 0.00 0.00 0.00 21 1008.3